Location: Home
(42.5358°N, 72.7383°W)
Time: 08:25:01
(UTC-04:00)

A-11 Canister half - Pass Details

Date: 01 July 2022
Orbit: 1514 x 1685 km, 47.2° (Epoch: 15 August)

Event Time Altitude Azimuth Distance (km) Brightness Sun altitude
Rises 20:57:56 0° 200° (SSW) 4,908 11.5 -4.7°
Reaches altitude 10° 21:01:30 10° 191° (S) 3,932 10.9 -5.2°
Maximum altitude 21:10:08 33° 132° (SE) 2,546 9.7 -6.5°
Drops below altitude 10° 21:18:45 10° 73° (ENE) 3,930 10.8 -7.7°
Sets 21:22:16 0° 65° (ENE) 4,905 11.4 -8.1°
